Starlink 31690

operational
NORAD ID: 59581 Int'l Des: 2024-076 Owner: SPXS Country: US Constellation: starlink
LEOCIRCULAR

关于 Starlink 31690

正在加载描述...

实时位置

正在加载3D地球...

即将过境

高度历史

Altitude vs Time

uPlot chart will show altitude changes over time

两行轨道根数

1 59581U 24076T 25260.01644386 .00000260 00000-0 18978-4 0 9999
2 59581 43.0036 269.6370 0001031 282.3825 77.6911 15.27557107 79955
Epoch: Sep 17, 2025 • Age: 24 hours

当前状态

高度 484.2 km
速度 7.62 km/s
星下点 -6.97°S, 82.75°E
发射日期 Apr 23, 2024
运行时间 1.4 years
类型 internet

技术详情

分类 Payload
质量 730.00 kg
干质量 700.00 kg
总质量 730.00 kg
长度 0.30 m
直径 4.10 m
跨度 29.00 m
形状 Box + pan
制造商 SPXS
平台类型 Starlink V2M
阶段状态 In Orbit
所有者/国家 SPXS/US

大型星座

Loading constellations...